Date_and_time,latitude,longitude,wind_speed,RelWindDirFrom,WindDirFrom,air_pressure,air_temperature,relative_humidity,Temp,platform_speed_wrt_ground,air_pressure_at_mean_sea_level,platform_orientation
2018-08-21 00:00,50.63043,-96.9807616666667,4.4,5.4,152,993.48,19.7,50,20.76,0.0,1019.55,165.5
2018-08-21 00:10,50.6304316666667,-96.9807633333333,4.4,5.5,155,993.39,19.6,52,20.78,0.0,1019.46,165.5
2018-08-21 00:20,50.63043,-96.980765,4.9,6.6,162,993.37,19.5,52,20.79,0.0,1019.46,165.5
2018-08-21 00:30,50.6304316666667,-96.9807666666667,4.6,5.9,160,993.28,19.4,53,20.80,0.0,1019.36,165.5
2018-08-21 00:40,50.6304316666667,-96.9807666666667,3.4,5.5,162,993.23,19.4,55,20.79,0.0,1019.33,165.5
2018-08-21 00:50,50.6304316666667,-96.980765,1.7,3.6,175,993.30,19.5,52,20.78,0.0,1019.40,165.5
2018-08-21 01:00,50.6304516666667,-96.9807716666667,2.1,3.1,199,993.35,19.3,54,20.80,0.0,1019.45,360.0
2018-08-21 01:10,50.630425,-96.9807616666667,3.0,4.1,209,993.47,19.3,54,20.80,0.0,1019.60,360.0
2018-08-21 01:20,50.63043,-96.9807616666667,3.7,4.7,217,993.55,19.2,56,20.79,0.0,1019.67,360.0
2018-08-21 01:30,50.6304366666667,-96.9807633333333,4.2,5.3,211,993.58,18.8,56,20.77,0.0,1019.69,360.0
2018-08-21 01:40,50.6304383333333,-96.980765,2.7,4.3,222,993.65,18.7,56,20.75,0.0,1019.78,360.0
2018-08-21 01:50,50.6304383333333,-96.9807633333333,2.9,3.9,226,993.76,18.6,55,20.74,0.0,1019.93,360.0
2018-08-21 02:00,50.63044,-96.9807633333333,3.7,4.7,229,993.88,18.4,54,20.74,0.0,1020.07,0.0
2018-08-21 02:10,50.6304416666667,-96.9807633333333,4.1,5.8,236,994.04,18.3,54,20.76,0.0,1020.25,0.0
2018-08-21 02:20,50.6304433333333,-96.9807616666667,4.5,5.8,227,994.13,18.1,54,20.77,0.0,1020.36,0.0
2018-08-21 02:30,50.6304433333333,-96.9807633333333,3.6,5.1,224,994.11,18.1,55,20.77,0.0,1020.33,0.0
2018-08-21 02:40,50.6304433333333,-96.9807633333333,3.7,4.8,226,994.16,18.2,53,20.76,0.0,1020.37,0.0
2018-08-21 02:50,50.63046,-96.98074,4.3,5.1,224,994.22,18.0,53,20.76,0.0,1020.44,0.0
2018-08-21 03:00,50.6304533333333,-96.98075,3.8,4.7,218,994.20,18.1,52,20.76,0.0,1020.43,13.3
2018-08-21 03:10,50.630435,-96.9807566666667,2.5,3.8,215,994.28,18.2,53,20.76,0.0,1020.51,13.3
2018-08-21 03:20,50.6304233333333,-96.98079,2.1,3.0,234,994.32,18.1,50,20.75,0.0,1020.57,13.3
2018-08-21 03:30,50.6304483333333,-96.98077,1.2,2.2,262,994.34,18.1,51,20.74,0.0,1020.59,13.3
2018-08-21 03:40,50.6304366666667,-96.9807633333333,1.9,3.0,337,994.27,18.0,55,20.74,0.0,1020.54,13.3
2018-08-21 03:50,50.6304366666667,-96.9807633333333,3.0,4.5,323,994.29,17.6,54,20.73,0.0,1020.58,13.3
2018-08-21 04:00,50.6304383333333,-96.9807616666667,4.7,6.8,343,994.29,17.4,58,20.73,0.0,1020.59,143.4
2018-08-21 04:10,50.63044,-96.9807616666667,6.4,9.0,342,994.28,17.6,64,20.72,0.0,1020.58,143.4
2018-08-21 04:20,50.6304416666667,-96.9807616666667,7.3,10.6,346,994.32,17.9,66,20.71,0.0,1020.62,143.4
2018-08-21 04:30,50.6304416666667,-96.9807616666667,6.9,9.8,341,994.43,18.0,65,20.70,0.0,1020.72,143.4
2018-08-21 04:40,50.6304433333333,-96.9807633333333,6.9,9.5,342,994.52,17.9,63,20.70,0.0,1020.82,143.4
2018-08-21 04:50,50.6304416666667,-96.9807633333333,6.5,9.1,339,994.47,17.8,62,20.69,0.0,1020.77,143.4
2018-08-21 05:00,50.6304416666667,-96.9807633333333,6.4,9.7,340,994.44,17.6,62,20.68,0.0,1020.74,90.0
2018-08-21 05:10,50.63044,-96.9807616666667,8.7,11.1,347,994.46,17.7,61,20.67,0.0,1020.76,90.0
2018-08-21 05:20,50.63044,-96.9807633333333,8.2,11.0,346,994.48,17.8,60,20.66,0.0,1020.78,90.0
2018-08-21 05:30,50.6304266666667,-96.98076,7.5,9.7,341,994.51,17.6,58,20.64,0.0,1020.83,90.0
2018-08-21 05:40,50.63044,-96.980765,7.7,9.8,340,994.53,17.2,58,20.62,0.0,1020.88,90.0
2018-08-21 05:50,50.6304416666667,-96.9807666666667,7.7,10.0,344,994.47,17.1,59,20.60,0.0,1020.83,90.0
2018-08-21 06:00,50.6304416666667,-96.9807683333333,7.0,8.9,341,994.41,16.8,60,20.59,0.0,1020.77,216.6
2018-08-21 06:10,50.6304416666667,-96.98077,5.7,8.2,334,994.41,16.4,61,20.58,0.0,1020.78,216.6
2018-08-21 06:20,50.63042,-96.9807716666667,4.2,6.5,324,994.40,15.9,62,20.57,0.0,1020.79,216.6
2018-08-21 06:30,50.6304366666667,-96.9807783333333,4.2,5.5,317,994.39,15.4,61,20.55,0.0,1020.81,216.6
2018-08-21 06:40,50.6304316666667,-96.9807766666667,4.0,5.3,313,994.35,15.1,61,20.54,0.0,1020.79,216.6
2018-08-21 06:50,50.6304366666667,-96.9807716666667,3.1,4.6,309,994.27,14.8,62,20.52,0.0,1020.72,216.6
2018-08-21 07:00,50.6304366666667,-96.980775,2.1,3.8,280,994.26,14.5,64,20.51,0.0,1020.72,234.7
2018-08-21 07:10,50.6304366666667,-96.9807716666667,1.8,3.3,267,994.27,14.0,65,20.50,0.0,1020.75,234.7
2018-08-21 07:20,50.6304466666667,-96.98079,2.0,3.4,272,994.31,13.7,67,20.48,0.0,1020.82,234.7
2018-08-21 07:30,50.6304416666667,-96.98077,2.0,4.0,274,994.28,13.2,68,20.47,0.0,1020.82,234.7
2018-08-21 07:40,50.6304383333333,-96.9807733333333,3.3,5.7,282,994.22,12.9,70,20.46,0.0,1020.79,234.7
2018-08-21 07:50,50.6304366666667,-96.9807666666667,4.4,6.6,277,994.22,12.5,73,20.47,0.0,1020.82,234.7
2018-08-21 08:00,50.6304383333333,-96.9807683333333,5.3,7.5,279,994.19,12.2,75,20.46,0.0,1020.82,90.0
2018-08-21 08:10,50.63043,-96.98075,5.9,7.2,283,994.17,12.0,75,20.44,0.0,1020.84,90.0
2018-08-21 08:20,50.6304383333333,-96.9807633333333,5.7,7.5,284,994.22,11.9,76,20.43,0.0,1020.91,90.0
2018-08-21 08:30,50.6304433333333,-96.9807616666667,5.3,7.5,279,994.28,11.6,78,20.43,0.0,1021.00,90.0
2018-08-21 08:40,50.63044,-96.98075,5.2,6.6,278,994.26,11.6,79,20.42,0.0,1020.99,90.0
2018-08-21 08:50,50.6304383333333,-96.9807566666667,5.8,7.5,280,994.20,11.4,79,20.41,0.0,1020.95,90.0
2018-08-21 09:00,50.630435,-96.98076,5.4,7.4,275,994.21,11.2,82,20.40,0.0,1021.01,131.7
2018-08-21 09:10,50.6304533333333,-96.9807616666667,6.8,9.6,276,994.26,10.9,83,20.37,0.0,1021.08,131.7
2018-08-21 09:20,50.6304483333333,-96.9807583333333,6.3,8.3,279,994.27,10.7,84,20.37,0.0,1021.12,131.7
2018-08-21 09:30,50.630445,-96.9807616666667,5.6,7.3,278,994.26,10.7,85,20.37,0.0,1021.13,131.7
2018-08-21 09:40,50.630445,-96.980765,6.4,8.7,276,994.28,10.7,85,20.36,0.0,1021.17,131.7
2018-08-21 09:50,50.63045,-96.980755,6.2,8.0,277,994.29,10.6,86,20.35,0.0,1021.19,131.7
2018-08-21 10:00,50.6304516666667,-96.9807633333333,6.1,8.0,276,994.31,10.4,87,20.33,0.0,1021.24,360.0
2018-08-21 10:10,50.63046,-96.98079,6.2,7.7,274,994.35,10.4,87,20.32,0.0,1021.28,360.0
2018-08-21 10:20,50.6304483333333,-96.980775,6.6,8.1,272,994.36,10.3,87,20.28,0.0,1021.31,360.0
2018-08-21 10:30,50.6304483333333,-96.9807733333333,6.4,8.4,269,994.40,10.2,88,20.25,0.0,1021.36,360.0
2018-08-21 10:40,50.6304466666667,-96.98077,6.6,9.7,269,994.42,10.3,88,20.25,0.0,1021.38,360.0
2018-08-21 10:50,50.6304466666667,-96.9807666666667,5.5,7.6,267,994.48,10.5,87,20.22,0.0,1021.44,360.0
2018-08-21 11:00,50.6304466666667,-96.9807666666667,4.7,7.0,269,994.41,10.4,87,20.21,0.0,1021.40,38.0
2018-08-21 11:10,50.630445,-96.9807666666667,4.8,7.1,271,994.47,10.0,87,20.19,0.0,1021.48,38.0
2018-08-21 11:20,50.6304383333333,-96.9807566666667,5.3,8.0,277,994.52,9.7,87,20.18,0.0,1021.55,38.0
2018-08-21 11:30,50.6304333333333,-96.9807583333333,5.6,7.8,281,994.59,9.5,86,20.18,0.0,1021.63,38.0
2018-08-21 11:40,50.6304416666667,-96.980785,5.3,7.9,281,994.66,9.7,82,20.17,0.0,1021.69,38.0
2018-08-21 11:50,50.6304416666667,-96.9807866666667,5.5,8.7,284,994.65,10.4,77,20.16,0.0,1021.67,38.0
2018-08-21 12:00,50.6304416666667,-96.9807833333333,5.3,9.5,282,994.67,10.9,75,20.14,0.0,1021.67,286.8
2018-08-21 12:10,50.6304433333333,-96.9807816666667,5.9,9.1,279,994.65,11.5,73,20.13,0.0,1021.62,286.8
2018-08-21 12:20,50.630455,-96.9807783333333,5.9,8.2,275,994.67,11.8,72,20.11,0.0,1021.62,286.8
2018-08-21 12:30,50.6304566666667,-96.9808033333333,5.1,7.7,278,994.74,12.0,71,20.10,0.0,1021.68,286.8
2018-08-21 12:40,50.630435,-96.9807766666667,6.0,8.8,276,994.72,12.2,71,20.09,0.0,1021.64,286.8
2018-08-21 12:50,50.63044,-96.9807716666667,5.8,9.2,280,994.70,12.7,69,20.08,0.0,1021.60,286.8
2018-08-21 13:00,50.63044,-96.9807683333333,5.7,9.0,278,994.75,13.3,67,20.06,0.0,1021.65,360.0
2018-08-21 13:10,50.63044,-96.9807666666667,5.3,8.5,277,994.75,13.8,65,20.04,0.0,1021.64,360.0
2018-08-21 13:20,50.6304366666667,-96.98078,5.0,8.6,278,994.68,14.3,63,20.03,0.0,1021.55,360.0
2018-08-21 13:30,50.630435,-96.980765,5.3,9.1,274,994.67,14.8,62,20.03,0.0,1021.51,360.0
2018-08-21 13:40,50.6304366666667,-96.980765,5.4,8.0,274,994.67,15.2,60,20.00,0.0,1021.46,360.0
2018-08-21 13:50,50.6304383333333,-96.9807633333333,6.2,10.6,283,994.57,15.7,57,19.97,0.0,1021.31,360.0
2018-08-21 14:00,50.63044,-96.9807633333333,4.5,7.8,278,994.54,16.3,57,19.98,0.0,1021.22,142.0
2018-08-21 14:10,50.6304416666667,-96.9807616666667,5.7,9.7,266,994.59,16.7,54,19.97,0.0,1021.23,142.0
2018-08-21 14:20,50.6304416666667,-96.9807633333333,6.7,11.1,274,994.59,17.2,51,19.97,0.0,1021.20,142.0
2018-08-21 14:30,50.6304533333333,-96.9808233333333,6.4,9.9,275,994.56,17.8,48,19.97,0.0,1021.13,142.0
2018-08-21 14:40,50.6304516666667,-96.9807816666667,7.6,11.7,269,994.54,18.3,45,19.93,0.0,1021.07,142.0
2018-08-21 14:50,50.6304483333333,-96.9807783333333,6.9,11.2,279,994.47,18.8,42,19.93,0.0,1020.95,142.0
2018-08-21 15:00,50.6304516666667,-96.9807716666667,7.1,11.9,278,994.44,19.2,41,19.94,0.0,1020.88,12.6
2018-08-21 15:10,50.63045,-96.9807766666667,7.0,10.9,285,994.39,19.5,39,19.95,0.0,1020.79,12.6
2018-08-21 15:20,50.6304183333333,-96.9807833333333,7.0,11.2,268,994.41,19.7,38,19.97,0.0,1020.77,12.6
2018-08-21 15:30,50.6304416666667,-96.980765,7.0,11.0,261,994.45,19.9,37,20.00,0.0,1020.78,12.6
2018-08-21 15:40,50.63044,-96.9807666666667,7.4,11.3,267,994.45,20.1,37,20.04,0.0,1020.76,12.6
2018-08-21 15:50,50.63044,-96.9807683333333,6.7,10.3,277,994.44,20.3,36,20.05,0.0,1020.70,12.6
2018-08-21 16:00,50.63044,-96.9807666666667,6.4,10.8,258,994.40,20.5,36,20.08,0.0,1020.64,0.0
2018-08-21 16:10,50.63044,-96.980765,7.7,12.2,238,994.34,20.6,36,20.11,0.0,1020.55,0.0
2018-08-21 16:20,50.6304416666667,-96.9807666666667,6.3,10.9,248,994.26,20.8,35,20.15,0.0,1020.43,0.0
2018-08-21 16:30,50.6304416666667,-96.98077,4.3,8.4,264,994.24,21.0,35,20.19,0.0,1020.38,0.0
2018-08-21 16:40,50.6304333333333,-96.9807716666667,4.2,9.4,274,994.20,21.3,35,20.20,0.0,1020.30,0.0
2018-08-21 16:50,50.6304416666667,-96.9807633333333,6.5,11.8,273,994.18,21.5,35,20.22,0.0,1020.26,0.0
2018-08-21 17:00,50.6304416666667,-96.98076,4.4,13.1,257,994.12,21.4,35,20.28,0.0,1020.18,90.0
2018-08-21 17:10,50.630445,-96.9807616666667,6.6,11.9,268,994.05,21.6,33,20.30,0.0,1020.10,90.0
2018-08-21 17:20,50.6304433333333,-96.9807616666667,6.3,9.7,243,994.05,21.5,34,20.36,0.0,1020.09,90.0
2018-08-21 17:30,50.6304483333333,-96.98076,5.7,11.2,269,993.96,21.9,33,20.37,0.0,1019.97,90.0
2018-08-21 17:40,50.630445,-96.98079,4.6,9.1,294,993.90,21.9,32,20.33,0.0,1019.90,90.0
2018-08-21 17:50,50.630445,-96.9807866666667,6.0,10.5,294,993.88,21.9,31,20.34,0.0,1019.87,90.0
2018-08-21 18:00,50.630445,-96.9807816666667,5.1,11.6,259,993.82,22.1,30,20.39,0.0,1019.80,192.6
2018-08-21 18:10,50.630445,-96.9807816666667,6.1,11.4,307,993.68,22.1,30,20.40,0.0,1019.64,192.6
2018-08-21 18:20,50.6304433333333,-96.98078,6.2,10.7,256,993.64,22.4,29,20.39,0.0,1019.57,192.6
2018-08-21 18:30,50.630445,-96.9807783333333,6.3,10.9,249,993.49,22.5,29,20.37,0.0,1019.41,192.6
2018-08-21 18:40,50.6304466666667,-96.9807783333333,6.4,11.9,294,993.36,22.9,27,20.38,0.0,1019.25,192.6
2018-08-21 18:50,50.6304466666667,-96.9807783333333,7.0,13.6,285,993.27,22.9,28,20.46,0.0,1019.16,192.6
2018-08-21 19:00,50.6304466666667,-96.9807766666667,7.0,11.8,258,993.33,22.9,27,20.46,0.0,1019.21,311.7
2018-08-21 19:10,50.6304466666667,-96.9807766666667,6.4,12.6,272,993.24,23.1,26,20.45,0.0,1019.12,311.7
2018-08-21 19:20,50.6304466666667,-96.9807766666667,7.0,11.2,251,993.16,23.0,27,20.56,0.0,1019.02,311.7
2018-08-21 19:30,50.6304516666667,-96.9807733333333,7.8,13.3,269,993.00,23.3,27,20.59,0.0,1018.84,311.7
2018-08-21 19:40,50.6304416666667,-96.9807633333333,7.5,13.0,260,992.91,23.4,26,20.48,0.0,1018.75,311.7
2018-08-21 19:50,50.63044,-96.9807666666667,8.2,14.5,257,992.91,23.3,27,20.42,0.0,1018.74,311.7
2018-08-21 20:00,50.63043,-96.9807666666667,6.2,12.0,288,992.85,23.4,27,20.39,0.0,1018.67,203.5
2018-08-21 20:10,50.63044,-96.9807716666667,9.5,14.7,284,992.69,23.3,27,20.59,0.0,1018.50,203.5
2018-08-21 20:20,50.6304266666667,-96.9807733333333,8.4,13.9,286,992.56,23.6,27,20.76,0.0,1018.35,203.5
2018-08-21 20:30,50.6304366666667,-96.98076,8.0,14.6,294,992.45,23.6,28,20.79,0.0,1018.23,203.5
2018-08-21 20:40,50.6304416666667,-96.9807616666667,5.2,16.1,251,992.44,23.7,29,20.73,0.0,1018.21,203.5
2018-08-21 20:50,50.6304416666667,-96.980765,7.6,11.5,252,992.46,23.6,28,20.66,0.0,1018.24,203.5
2018-08-21 21:00,50.6304433333333,-96.980765,8.4,14.7,231,992.29,23.7,29,20.75,0.0,1018.05,90.0
2018-08-21 21:10,50.630445,-96.9807666666667,8.3,12.9,255,992.21,23.5,29,20.80,0.0,1017.98,90.0
2018-08-21 21:20,50.630445,-96.98077,6.8,10.8,268,992.16,23.4,28,20.76,0.0,1017.91,90.0
2018-08-21 21:30,50.630445,-96.98077,7.4,13.4,256,992.04,23.8,27,20.82,0.0,1017.77,90.0
2018-08-21 21:40,50.630445,-96.9807683333333,6.0,11.4,250,991.98,23.9,27,20.88,0.0,1017.71,90.0
2018-08-21 21:50,50.6304433333333,-96.9807683333333,5.0,10.2,296,991.91,24.3,26,20.90,0.0,1017.62,90.0
2018-08-21 22:00,50.630445,-96.9807733333333,7.3,12.1,245,991.97,24.2,26,20.88,0.0,1017.68,360.0
2018-08-21 22:10,50.630445,-96.9807666666667,6.4,11.5,279,991.80,24.0,26,20.85,0.0,1017.51,360.0
2018-08-21 22:20,50.6304483333333,-96.9807633333333,6.2,12.0,262,991.78,23.9,26,20.76,0.0,1017.49,360.0
2018-08-21 22:30,50.6304483333333,-96.9807633333333,7.0,12.3,263,991.74,24.3,25,20.71,0.0,1017.43,360.0
2018-08-21 22:40,50.630445,-96.9807633333333,6.5,11.0,274,991.70,24.0,25,20.71,0.0,1017.41,360.0
2018-08-21 22:50,50.630445,-96.980765,6.1,9.5,262,991.66,24.0,26,20.84,0.0,1017.36,360.0
2018-08-21 23:00,50.630445,-96.980765,4.9,8.6,272,991.59,24.0,27,20.89,0.0,1017.30,18.9
2018-08-21 23:10,50.6304566666667,-96.9807766666667,7.0,10.8,261,991.62,23.8,26,20.84,0.0,1017.34,18.9
2018-08-21 23:20,50.630445,-96.98077,6.5,10.1,260,991.61,23.6,26,20.73,0.0,1017.32,18.9
2018-08-21 23:30,50.630435,-96.9807766666667,6.3,10.3,255,991.54,23.5,25,20.69,0.0,1017.25,18.9
2018-08-21 23:40,50.6304416666667,-96.980775,7.6,12.5,231,991.45,23.2,27,20.80,0.0,1017.15,18.9
